Date,TemperatureHighF,TemperatureAvgF,TemperatureLowF,DewpointHighF,DewpointAvgF,DewpointLowF,HumidityHigh,HumidityAvg,HumidityLow,PressureMaxIn,PressureMinIn,WindSpeedMaxMPH,WindSpeedAvgMPH,GustSpeedMaxMPH,PrecipitationSumIn
2013-3-1,79.3,52.7,0.0,24.8,17.1,10.4,47,28,10,30.12,0.00,8,1,8,0.00
2013-3-2,89.4,62.1,0.0,32.0,22.0,14.0,47,25,8,30.09,29.80,7,1,7,0.00
2013-3-3,89.4,65.3,42.3,32.0,21.1,14.0,42,22,8,29.88,29.62,11,1,11,0.00
2013-3-4,77.4,65.2,51.4,30.2,24.9,19.4,37,22,13,29.85,29.65,17,3,17,0.00
2013-3-5,87.1,63.4,43.7,35.6,26.4,17.6,49,28,10,29.91,29.68,9,1,9,0.00
2013-3-6,87.8,68.3,51.1,35.6,27.2,17.6,43,24,11,29.80,29.56,10,1,10,0.00
2013-3-7,86.4,65.4,45.0,33.8,23.7,14.0,47,24,8,29.77,29.59,14,2,15,0.00
2013-3-8,74.3,60.0,0.0,48.2,33.7,24.8,63,37,24,29.74,29.53,22,4,22,0.13
2013-3-9,59.4,52.2,43.0,39.2,33.0,30.2,74,48,35,29.85,29.74,12,2,12,0.13
2013-3-10,70.3,56.6,43.5,37.4,32.6,28.4,71,42,23,29.91,29.77,13,3,13,0.00
2013-3-11,79.9,58.8,38.7,35.6,27.3,19.4,66,35,12,29.97,29.71,9,1,9,0.00
2013-3-12,89.6,64.3,41.0,35.6,27.6,21.2,51,29,10,29.91,29.68,8,1,8,0.00
2013-3-13,96.8,70.4,45.9,37.4,27.0,15.8,53,25,6,29.91,29.68,12,1,12,0.00
2013-3-14,99.3,73.5,49.3,35.6,23.3,14.0,39,20,5,29.91,29.65,8,1,8,0.04
2013-3-15,88.3,62.7,0.0,30.2,24.2,17.6,31,24,8,29.85,27.14,14,2,14,0.00
2013-3-16,88.0,77.3,0.0,26.6,19.2,14.0,25,12,8,29.68,0.00,18,4,18,0.00
2013-3-17,83.3,71.0,57.4,24.8,17.7,10.4,24,14,9,29.71,29.53,17,3,17,0.00
2013-3-18,81.9,69.4,55.9,32.0,22.6,15.8,28,18,9,29.80,29.59,10,1,10,0.04
2013-3-19,80.1,69.3,58.6,32.0,25.3,21.2,27,20,12,29.80,29.65,11,2,11,0.00
2013-3-20,81.9,70.9,57.9,32.0,25.4,21.2,27,19,12,29.83,29.59,10,1,10,0.00
2013-3-21,77.2,67.3,0.0,33.8,27.7,23.0,27,22,15,29.62,29.47,8,1,9,0.00
2013-3-22,81.1,71.4,60.8,33.8,27.8,19.4,31,20,12,29.59,29.41,17,3,17,0.00
2013-3-23,75.7,66.4,54.9,32.0,22.0,10.4,37,20,10,29.74,29.56,17,2,17,0.00
2013-3-24,76.3,63.4,0.0,17.6,12.9,6.8,21,14,10,29.83,29.59,15,2,15,0.00
2013-3-25,79.9,66.6,50.5,19.4,13.1,6.8,16,13,10,29.83,29.59,10,1,10,0.00
2013-3-26,86.9,72.0,55.9,19.4,15.6,10.4,17,12,8,29.74,29.53,18,2,18,0.00
2013-3-27,84.9,72.9,57.6,23.0,16.8,12.2,17,12,8,29.74,29.62,16,2,16,0.00
2013-3-28,84.6,75.0,58.8,28.4,18.8,3.2,19,12,8,29.83,29.65,12,2,12,0.00
2013-3-29,86.4,73.5,60.8,32.0,20.4,14.0,24,14,8,29.88,29.68,13,1,31,0.00
2013-3-30,83.5,72.5,62.1,23.0,17.1,10.4,16,12,9,29.83,29.65,12,2,12,0.00
2013-3-31,85.1,72.5,57.9,28.4,21.6,14.0,25,16,9,29.83,29.62,22,2,22,0.00